{"data":{"norad_id":59522,"epoch":"2026-05-24T16:59:09.385728Z","epoch_age_seconds":110459,"freshness":"FRESH","line1":"1 59522U 24073M   26144.70774752  .00022835  00000+0  83606-3 0  9990","line2":"2 59522  43.0013 230.9353 0002132 279.0689  80.9921 15.27607263118008","mean_motion":15.27607263,"eccentricity":0.0002132,"inclination_deg":43.0013,"raan_deg":230.9353,"arg_perigee_deg":279.0689,"mean_anomaly_deg":80.9921,"bstar":0.00083606,"rev_number":11800,"period_min":94.26506634775,"perigee_km":481.50467455265,"apogee_km":484.43024949526,"semimajor_km":6861.104462024,"source":"CELESTRAK","updated_at":"2026-05-25T13:38:18.975826Z"}}